Regional Weather Roundup
Issued by NWS

Home | Current Version | Previous Version | Text Only | Print | Product List | Glossary On
Versions: 1 2 3 4 5 6 7 8 9 10 11 12 13 14 15 16 17 18 19 20 21 22 23 24 25 26 27 28 29 30 31 32 33 34 35 36 37 38 39 40 41 42 43 44 45 46 47 48 49 50
000
ASCA44 KEWX 200020
RWRMX

LATIN AMERICA AND CARIBBEAN REGIONAL WEATHER ROUNDUP
NATIONAL WEATHER SERVICE AUSTIN/SAN ANTONIO TX
600 PM CST MON FEB 19 2018

NOTE: "FAIR" INDICATED FEW OR NO CLOUDS BELOW 12,000 FEET WITH NO
SIGNIFICANT WEATHER AND/OR OBSTRUCTIONS TO VISIBILITY.

BAJA CALIFORNIA

CITY           SKY/WX    TMP DP  RH WIND       PRES   REMARKS
LORETO         MOSUNNY   73  63  68 W21       29.87S
LA PAZ         CLOUDY    66  61  82 S7        30.00
MEXICALI       MOSUNNY   61  16  17 W25       29.85
S.J. DEL CABO  CLOUDY    70  57  64 N6        29.97
TIJUANA        MOSUNNY   55  37  50 W13       29.98

NORTHWESTERN MEXICO

CITY           SKY/WX    TMP DP  RH WIND       PRES   REMARKS
CULIACAN       CLOUDY    70  66  88 CALM      29.95
DURANGO        PTSUNNY   68  30  24 W16       30.08
GUAYMAS        MOSUNNY   72  57  60 S9        29.85
HERMOSILLO     MOSUNNY   73  46  38 SW17      29.88
CD. JUAREZ     MOSUNNY   66  37  34 W14G25    29.72
LOS MOCHIS     CLOUDY    70  55  60 S13       29.95S
OBREGON        MOSUNNY   72  48  43 S8        29.89

NORTHEASTERN MEXICO

CITY           SKY/WX    TMP DP  RH WIND       PRES   REMARKS
CHIHUAHUA      PTSUNNY   64  36  34 SW30G41   29.89
MATAMOROS      MOCLDY    77  72  83 SE22      29.86
MONCLOVA       MOCLDY    88  50  27 E9        29.74R
MONTERREY      MOCLDY    81  63  54 SE6       29.78R
NUEVO LAREDO   MOCLDY    86  61  42 S9        29.73
PIEDRAS NEGRAS   N/A    N/A N/A N/A MISG        N/A
REYNOSA        PTCLDY    79  66  65 SE23G40   29.80
SALTILLO       MOCLDY    75  54  46 S9        29.99S
TORREON        PTSUNNY   86  34  15 SW5       29.84
CD. VICTORIA   PTCLDY    82  59  44 S14       29.81

WESTERN MEXICO

CITY           SKY/WX    TMP DP  RH WIND       PRES   REMARKS
AGUASCALIENTES PTSUNNY   73  32  21 W12       30.10S
COLIMA         MOSUNNY   77  66  69 W17       30.00R
DEL BAJIO      MOCLDY    72  43  35 S10       30.15S
GUADALAJARA    PTSUNNY   75  39  27 S5        30.06
MANZANILLO     MOSUNNY   81  73  78 SW12      29.87
MAZATLAN       CLOUDY    79  64  61 NW9       29.91R
P. VALLARTA    PTSUNNY   79  70  73 SW9       29.89R
URUAPAN        PTSUNNY   70  55  60 CALM      30.09S
ZACATECAS      MOSUNNY   70  37  30 W17       30.12S

CENTRAL MEXICO

CITY           SKY/WX    TMP DP  RH WIND       PRES   REMARKS
CUERNAVACA       N/A    N/A N/A N/A MISG        N/A
MEXICO CITY    MOCLDY    70  41  35 S16       30.17R
MORELIA        PTCLDY    70  45  40 S14       30.11
POZA RICA      CLEAR    N/A N/A N/A E9        29.88R
PUEBLA         CLEAR     66  39  37 S10       30.19R
QUERETARO      MOCLDY    72  46  40 W12       30.15R
S. LUIS POTOSI MOCLDY    66  46  48 NE8       30.07
TAMPICO        CLEAR     75  70  83 MISG      29.85R
TOLUCA         MOCLDY    61  41  48 W8        30.25

SOUTHERN MEXICO

CITY           SKY/WX    TMP DP  RH WIND       PRES   REMARKS
ACAPULCO       CLEAR     82  73  74 W12       29.83R
B. DE HUATULCO CLEAR    N/A N/A N/A S12       29.89
OAXACA         MOCLDY    79  27  14 SE8       30.06S
P. ESCONDIDO   PTCLDY    81  73  78 S7        29.96R
VERACRUZ       CLEAR     77  70  78 E12       29.85R
ZIHUATANEJO    SUNNY     84  72  65 NW3       29.85

YUCATAN PENINSULA

CITY           SKY/WX    TMP DP  RH WIND       PRES   REMARKS
CAMPECHE       PTCLDY    86  70  58 E12G23    29.89R HX  90
CANCUN         MOCLDY    79  70  73 SE12      30.05S
CHETUMAL       PTCLDY    81  72  74 NE7       29.99
CD. DEL CARMEN PTCLDY    84  68  58 SE15      29.89
COZUMEL        PTCLDY    75  73  94 E8        30.03S
MERIDA         PTCLDY    88  61  40 SE12      29.95R
MINATITLAN     CLEAR     79  68  69 CALM      29.82
TAPACHULA      CLEAR     84  68  58 W5        29.85R
TUX. GUTIERREZ PTCLDY    90  50  25 W3        29.83S
VILLAHERMOSA   CLEAR     82  66  57 E15       29.87R

CENTRAL AMERICA

CITY           SKY/WX    TMP DP  RH WIND       PRES   REMARKS
BELIZE CITY    MOCLDY    79  73  83 E7        29.97
MANAGUA        MOCLDY    82  70  65 E14       29.83S

CARIBBEAN

CITY           SKY/WX    TMP DP  RH WIND       PRES   REMARKS
ARUBA          PTCLDY    79  70  73 E18       29.97R
CURACAO        PTCLDY    79  68  69 E15       29.97S
KINGSTON       PTCLDY    82  59  44 SE15      30.03R
NASSAU         MOCLDY    79  68  69 NE14      30.25S
SAN JUAN       MOCLDY    75  70  83 E16       30.16R
SANTO DOMINGO  MOCLDY    79  66  65 NE5       30.12R
ST. CROIX      PTCLDY    77  68  73 NE17G24   30.13
ST. KITTS      PTCLDY    75  70  83 NE17      30.09S
ST. MAARTEN    PTCLDY    77  64  65 E13       30.12S
ST. THOMAS     CLEAR     75  66  73 E14       30.13

$$





USA.gov is the U.S. government's official web portal to all federal, state and local government web resources and services.